User: anonymous   Login
Location: Unspecified
(0.0000°N, 0.0000°E)
Time: 06:12:39
(UTC+00:00)
Language:

N. Korean satellite - Orbit

View from above orbital plane
View from above orbital plane
View from above satellite
View from above satellite

Ground track
Ground track

The orbit data is extracted from the following two-line orbital elements,

1 39026U 12072A   18021.64959266  .00001287  00000-0  51178-4 0  9995
2 39026  97.2148  37.0145 0041235 121.7261 238.8008 15.26295937283302
Epoch (UTC): 21 January 2018 15:35:24
Eccentricity: 0.0041235
inclination: 97.2148°
perigee height: 458 km
apogee height: 515 km
right ascension of ascending node: 37.0145°
argument of perigee: 121.7261°
revolutions per day: 15.26295937
mean anomaly at epoch: 238.8008°
orbit number at epoch: 28330

The dashed part of the orbit path shows where the satellite is in the earth's shadow,  

DLR